View from above orbital plane
|
View from above satellite
|
Ground track
|
The orbit data is extracted from the following two-line orbital elements,
1 19210U 88050A 21104.54947673 -.00000032 00000-0 -42394-5 0 9991
2 19210 82.5128 117.5230 0013921 161.8990 198.2736 15.06217484766980
Epoch (UTC): | 14 April 2021 13:11:14 |
Eccentricity: | 0.0013921 |
inclination: | 82.5128° |
perigee height: | 538 km |
apogee height: | 557 km |
right ascension of ascending node: | 117.5230° |
argument of perigee: | 161.8990° |
revolutions per day: | 15.06217484 |
mean anomaly at epoch: | 198.2736° |
orbit number at epoch: | 76698 |
The dashed part of the orbit path shows where the satellite is in the earth's shadow,
|
|